Flag for Canada Weather past 2 weeks in Kenora, Ontario, Canada

Now
77 °F

Broken clouds.


Feels Like: 79 °F
Forecast: 60 / 78 °F
Wind: 7 mph from Southwest

Location: Kenora

Current Time: Jul 26, 2014 at 1:13:55 PM

Latest Report: Jul 26, 2014 at 12:00 PM


Visibility: 15 mi

Pressure: 29.72 "Hg

Humidity: 51%

Dew point: 57 °F

Location of KenoraLocation

Historic Weather in Kenora — Graph

°F

Kenora temperature yesterday

Maximum temperature yesterday: 75 °F (at 3:00 PM)
Minimum temperature yesterday: 59 °F (at 3:00 AM)
Average temperature yesterday: 68 °F

Past Weeks' High & Low Weather Summary

 TemperatureHumidityPressure
High86 °F (Jul 20, 6:00 PM)100% (Jul 13, 11:00 PM)30.34 "Hg (Jul 13, 11:00 PM)
Low48 °F (Jul 13, 11:00 PM)34% (Jul 11, 3:00 PM)29.58 "Hg (Jul 20, 2:00 PM)
Average65 °F72%29.92 "Hg
* Reported Jul 11 12:00 Noon — Jul 26 12:00 Noon, Kenora, Weather by CustomWeather, © 2014

Note: Actual official high and low records may vary slightly from our data, if they occured in-between our weather recording intervals... More about our weather records

Advertising

Kenora weather history for previous 24 hours

 ConditionsComfort  
Time TempWeatherWind HumidityBarometerVisibility
12:00 PM
Jul 26
77 °FBroken clouds.7 mph51%29.72 "Hg15 mi
11:00 AM73 °FBroken clouds.7 mph53%29.72 "Hg15 mi
10:00 AM72 °FScattered clouds.10 mph57%29.74 "Hg15 mi
9:00 AM68 °FScattered clouds.3 mph69%29.73 "Hg15 mi
8:00 AM64 °FScattered clouds.5 mph73%29.75 "Hg15 mi
7:00 AM61 °FPartly sunny.7 mph77%29.74 "Hg15 mi
6:00 AM59 °FPassing clouds.8 mph88%29.74 "Hg15 mi
5:00 AM61 °FPassing clouds.7 mph83%29.73 "Hg15 mi
4:00 AM61 °FPassing clouds.7 mph88%29.73 "Hg15 mi
3:00 AM63 °FPassing clouds.6 mph83%29.72 "Hg15 mi
2:00 AM63 °FPassing clouds.7 mph94%29.72 "Hg15 mi
1:00 AM64 °FPassing clouds.5 mph88%29.72 "Hg15 mi
12:00 AM64 °FPartly cloudy.3 mph94%29.73 "Hg15 mi
11:00 PM
Jul 25
66 °FPartly cloudy.7 mph83%29.72 "Hg15 mi
10:00 PM66 °FBroken clouds.3 mph88%29.71 "Hg15 mi
9:02 PM72 °FSprinkles. Broken clouds.6 mph83%29.71 "Hg10 mi
8:00 PM72 °FPartly sunny.9 mph78%29.70 "Hg15 mi
7:00 PM73 °FPartly sunny.10 mph69%29.71 "Hg15 mi
6:00 PM75 °FBroken clouds.12 mph65%29.71 "Hg15 mi
5:00 PM73 °FCloudy.8 mph74%29.72 "Hg15 mi
4:00 PM73 °FMostly cloudy.9 mph69%29.73 "Hg15 mi
3:00 PM75 °FScattered clouds.10 mph61%29.72 "Hg15 mi
2:00 PM73 °FPartly sunny.7 mph65%29.75 "Hg15 mi
1:00 PM73 °FBroken clouds.5 mph65%29.76 "Hg15 mi
Weather by CustomWeather, © 2014

See weather overviewHow to use our weather pages